Regional Weather Roundup
Issued by NWS

Home | Current Version | Previous Version | Graphics & Text | Print | Product List | Glossary On
Versions: 1 2 3 4 5 6 7 8 9 10 11 12 13 14 15 16 17 18 19 20 21 22 23 24 25 26 27 28 29 30 31 32 33 34 35 36 37 38 39 40 41 42 43 44 45 46 47 48 49 50
000
ASUS43 KOAX 281110
RWRNE

WEATHER ROUNDUP FOR NEBRASKA
NATIONAL WEATHER SERVICE OMAHA NE
600 AM CDT SUN AUG 28 2016

NOTES: SATELLITE DATA IS BEING USED TO AUGMENT CLOUD COVER ABOVE
       12000 FEET.
       "FAIR" INDICATES FEW OR NO CLOUDS BELOW 12,000 FEET WITH NO
       SIGNIFICANT WEATHER AND/OR OBSTRUCTIONS TO VISIBILITY.

  * THESE STATIONS DO NOT REPORT WEATHER SUCH AS RAIN...SNOW OR FOG.

NEZ001>004-019>022-054>056-281200-
NEBRASKA PANHANDLE

CITY           SKY/WX    TMP DP  RH WIND       PRES   REMARKS
SCOTTSBLUFF    CLEAR     57  53  86 E5        30.07R
ALLIANCE       CLEAR     56  54  93 CALM      30.06R
CHADRON        CLEAR     66  50  56 SW7       29.96S
SIDNEY         CLEAR     54  51  90 SW10      30.10F
$$

NEZ057>060-069>072-079>082-281200-
SOUTHWEST NEBRASKA

CITY           SKY/WX    TMP DP  RH WIND       PRES   REMARKS
NORTH PLATTE   PTCLDY    63  61  93 SE6       30.06S
IMPERIAL       PTCLDY    60  59  96 VRB5      30.08R FOG
LEXINGTON      MOCLDY    67  65  91 S6        30.06S
MCCOOK         CLOUDY    64  62  93 E3        30.07R
OGALLALA       CLEAR     63  60  91 CALM      30.07S
$$

NEZ005>010-023>029-035>040-094-281200-
NORTH CENTRAL NEBRASKA

CITY           SKY/WX    TMP DP  RH WIND       PRES   REMARKS
AINSWORTH      CLEAR     64  64 100 S8        30.02S
BROKEN BOW     CLOUDY    64  63  96 S5        30.06R
O`NEILL        CLEAR     67  65  91 S5        30.03F
ORD            CLEAR     63  61  93 CALM      30.04R
THEDFORD       CLEAR     65  64  96 S3        30.06S
$$

NEZ041-046>049-061>064-073>077-083>087-281200-
SOUTH CENTRAL NEBRASKA

CITY           SKY/WX    TMP DP  RH WIND       PRES   REMARKS
GRAND ISLAND   MOCLDY    68  66  93 S8        30.06S
AURORA         CLOUDY    65  65 100 SE6       30.06S
HASTINGS       PTCLDY    68  66  93 S7        30.07S
HEBRON         CLEAR     65  64  97 CALM      30.07R
HOLDREGE       CLOUDY    66  64  94 S5        30.07S
KEARNEY *      PTCLDY    66  63  88 S6        30.06S
YORK           PTCLDY    66  64  94 S7        30.06F
$$

NEZ011>018-030>034-042>045-281200-
NORTHEAST NEBRASKA

CITY           SKY/WX    TMP DP  RH WIND       PRES   REMARKS
NORFOLK        CLEAR     67  64  90 S10       30.05S
ALBION         CLEAR     65  62  91 SE6       30.06R
BLAIR          CLEAR     69  67  93 SE5       30.07S
FREMONT        CLOUDY    68  67  96 SE6       30.07R
TEKAMAH        FOG       60  59  96 CALM      30.06S VSB 1/2
WAYNE          CLEAR     64  64  98 S3        30.07S
$$

NEZ050>053-065>068-078-088>093-281200-
SOUTHEAST NEBRASKA

CITY           SKY/WX    TMP DP  RH WIND       PRES   REMARKS
LINCOLN        MOCLDY    65  63  93 CALM      30.07S
OMAHA EPPLEY   PTCLDY    68  64  87 SE6       30.07S
BEATRICE       CLEAR     68  66  95 SE5       30.07S
FALLS CITY     PTCLDY    69  68  96 CALM      30.07R
NEBRASKA CITY  CLEAR     67  67 100 S6        30.08S
PLATTSMOUTH    CLEAR     68  68  98 SE7       30.08R
$$

NEZ044-045-051>053-067-281200-
OMAHA AREA

CITY           SKY/WX    TMP DP  RH WIND       PRES   REMARKS
OMAHA EPPLEY   PTCLDY    68  64  87 SE6       30.07S
BLAIR          CLEAR     69  67  93 SE5       30.07S
FREMONT        CLOUDY    68  67  96 SE6       30.07R
MILLARD        CLEAR     68  66  96 CALM      30.07R
OFFUTT AFB     CLEAR     65  65 100 E7        30.07S
PLATTSMOUTH    CLEAR     68  68  98 SE7       30.08R
WAHOO          FOG       63  62  96 CALM      30.07S VSB 1/2
$$



USA.gov is the U.S. government's official web portal to all federal, state and local government web resources and services.